Temperature
17 16 16 16 16 16 16 16 16 16 16 15 15 15 15 15 15 15 15 15 14 14 14 14 14 14 14 14 14 14 14 14 13 13 13 13 12 12 12 12 12 12 12
16 16 16 16 16 16 16 16 16 16 16 15 15 15 15 15 15 15 15 14 14 14 14 14 14 14 14 14 14 14 13 13 13 13 13 12 12 12 12 12 12 12 12
16 16 16 16 16 16 16 15 16 16 15 15 15 15 15 15 15 14 14 14 14 14 14 14 14 14 14 14 13 13 13 13 13 13 12 12 12 12 12 12 11 11 11
16 16 16 16 16 16 15 15 15 15 15 15 15 15 15 15 14 14 14 14 14 14 14 14 14 14 14 14 13 13 13 13 13 12 12 12 12 11 11 11 11 11 11
16 16 16 16 16 15 15 15 15 15 15 15 15 15 15 15 14 14 14 14 14 14 14 14 14 14 13 13 13 13 13 13 12 12 12 11 11 11 11 11 11 11 11
16 16 16 16 15 15 15 15 15 15 15 15 15 15 15 14 14 14 14 14 14 14 13 13 13 13 13 13 13 13 13 12 12 12 12 11 11 11 11 11 11 11 10
16 16 16 16 15 15 15 15 15 15 15 15 15 15 14 14 14 14 14 13 13 13 13 13 13 13 13 12 12 12 12 12 12 12 11 11 11 11 11 11 10 10 10
16 16 16 16 15 15 15 15 15 15 15 14 14 14 14 14 14 14 13 13 13 13 13 13 13 13 12 12 12 12 12 12 11 11 11 11 11 11 11 10 10 10 10
16 16 16 15 15 15 15 15 15 14 14 14 14 14 14 14 14 13 13 13 13 13 13 12 13 12 12 12 12 12 12 11 11 11 11 11 11 10 10 10 10 10 10
16 16 15 15 15 15 15 15 14 14 14 14 14 14 14 14 13 13 13 12 12 12 12 12 12 12 12 12 11 11 11 11 11 11 11 11 10 10 10 10 10 9 9
16 15 15 15 15 15 14 14 14 14 14 14 13 13 13 13 13 13 13 12 12 12 12 12 12 12 12 11 11 11 11 11 10 10 10 10 10 10 10 9 9 9 9
15 15 15 15 15 14 14 14 14 14 13 13 13 13 13 13 13 12 12 12 12 12 12 11 11 11 11 11 11 11 10 10 10 10 9 9 9 9 9 9 9 8 8
15 15 15 15 14 14 14 14 14 13 13 13 13 13 13 12 12 12 12 12 12 11 11 11 11 11 11 11 10 10 10 10 9 9 9 9 8 8 8 8 8 8 8
15 15 14 14 14 14 14 13 13 13 13 13 12 12 12 12 12 12 12 11 11 11 11 11 10 10 10 10 10 9 9 9 9 8 8 8 8 8 8 8 8 7 7
14 14 14 14 14 13 13 13 13 13 13 12 12 12 12 12 12 12 11 11 11 11 10 10 10 10 10 9 9 9 9 8 8 8 8 8 8 7 7 7 7 7 7
14 13 13 13 13 13 13 12 12 12 12 12 12 12 12 12 11 11 11 11 11 10 10 10 9 9 9 9 8 8 8 8 8 8 7 7 7 7 7 7 6 6 6
13 13 13 13 13 13 12 12 12 12 12 12 11 11 11 11 11 11 11 10 10 10 9 9 9 9 8 8 8 8 8 7 7 7 7 7 6 6 6 6 6 6 5
13 13 13 13 13 12 12 12 12 12 11 11 11 11 11 11 11 10 10 10 9 9 9 9 8 8 8 8 7 7 7 7 7 6 6 6 6 6 6 5 5 5 5
13 12 12 12 12 12 12 12 12 11 11 11 11 11 10 10 10 10 10 9 9 9 9 8 8 8 7 7 7 7 7 6 6 6 6 6 6 5 5 5 4 4 4
12 12 12 12 12 12 11 11 11 11 11 11 11 11 10 10 10 10 9 9 9 8 8 8 8 7 7 7 7 6 6 6 6 6 5 5 5 5 5 4 4 4 4
12 12 12 12 11 11 11 11 11 11 11 10 10 10 10 10 10 9 9 9 8 8 8 8 7 7 7 6 6 6 6 6 5 5 5 5 5 4 4 4 3 3 3
11 11 11 11 11 11 11 11 10 10 10 10 10 10 9 9 9 9 9 8 8 8 7 7 7 7 6 6 6 5 5 5 5 5 4 4 4 4 4 3 3 3 3
11 11 11 11 11 11 10 10 10 10 10 9 9 9 9 9 8 8 8 8 8 7 7 7 6 6 6 5 5 5 5 5 4 4 4 4 4 3 3 3 3 2 2
11 10 10 10 10 10 10 10 9 9 9 9 9 8 8 8 8 8 7 7 7 7 6 6 6 5 5 5 5 5 4 4 4 4 3 3 3 3 3 2 2 2 2
10 10 10 10 10 9 9 9 9 9 8 8 8 8 8 7 7 7 7 6 6 6 6 5 5 5 4 4 4 4 4 4 3 3 3 3 3 3 2 2 2 2 2
9 9 9 9 9 9 9 8 8 8 8 7 7 7 7 7 7 6 6 6 6 5 5 5 4 4 4 4 4 4 3 3 3 3 3 3 2 2 2 2 1 1 1
Wind_Speed
7 6 6 5 5 5 3 4 4 3 4 4 3 4 4 4 4 4 3 3 3 2 2 4 4 4 3 3 3 4 4 3 3 1 2 2 3 3 4 5 4 6 6
7 6 6 6 5 5 4 4 4 3 3 3 4 4 4 3 3 3 3 2 3 2 2 3 3 3 3 3 3 3 3 3 3 2 2 2 3 2 3 3 4 4 4
7 7 6 6 6 5 5 4 3 3 3 3 4 4 4 3 3 2 3 2 3 3 3 4 3 3 2 2 2 2 2 3 2 2 1 2 2 2 2 3 4 4 3
7 6 6 6 6 5 5 4 3 4 4 3 4 4 4 3 3 2 2 3 3 4 3 4 4 4 4 4 3 4 3 3 2 2 1 1 2 2 3 2 3 3 3
8 7 6 6 6 6 5 4 3 3 4 4 4 4 4 4 3 4 3 2 3 3 3 3 4 6 7 5 4 4 4 3 2 2 1 1 2 2 2 2 2 3 2
9 7 6 6 6 6 6 4 4 3 3 5 5 4 4 4 6 7 5 3 2 2 2 3 4 5 6 6 6 6 5 3 2 1 1 1 1 1 1 2 2 2 3
8 8 7 7 7 6 6 5 5 4 4 4 4 5 5 5 6 6 6 3 2 2 2 2 3 4 4 3 4 5 5 5 3 1 1 1 1 2 1 2 2 2 2
8 8 8 8 7 7 7 6 5 4 4 4 4 5 5 4 4 4 4 2 1 2 3 2 3 3 3 3 1 2 3 3 3 2 1 1 1 2 1 1 2 2 2
7 8 9 8 8 7 7 6 5 5 4 4 5 5 5 3 3 2 2 0 1 1 2 3 4 4 5 5 3 2 2 2 4 4 3 2 2 4 4 3 3 2 3
7 7 8 8 8 7 7 6 5 5 4 4 4 4 5 4 3 2 1 1 1 1 2 3 5 5 5 5 3 2 2 2 2 2 2 2 2 3 4 1 0 1 2
6 6 7 7 8 7 6 5 6 5 4 4 4 4 4 4 4 3 2 1 1 1 1 2 3 4 4 4 3 1 1 2 2 1 1 1 2 2 3 3 3 1 2
7 6 6 6 7 7 7 6 5 5 5 5 4 4 3 4 4 3 3 1 2 1 1 2 2 2 2 3 2 2 3 4 1 1 2 2 2 2 2 3 4 4 3
8 7 6 7 6 6 6 6 5 4 4 4 4 3 3 3 3 4 3 1 2 1 1 2 2 0 0 1 1 2 2 2 1 1 1 2 1 2 2 3 4 4 5
8 7 6 6 6 6 5 5 4 4 3 3 3 3 3 3 3 2 1 1 1 2 1 1 1 1 1 1 1 1 1 1 0 1 1 2 2 2 2 2 3 3 3
7 7 6 5 6 6 5 4 5 4 5 5 4 4 4 4 3 5 4 2 2 1 1 1 0 0 0 1 1 1 1 1 1 1 1 2 2 2 3 3 2 3 4
6 6 5 5 5 6 6 5 5 5 6 7 6 5 4 5 7 6 5 3 3 3 3 1 0 0 0 0 0 1 1 1 1 1 2 2 2 3 3 3 3 3 4
6 5 4 4 5 5 6 6 4 3 5 5 6 6 5 6 7 7 5 5 4 4 2 1 1 0 0 0 0 1 1 1 1 1 2 2 3 3 3 4 4 4 4
5 5 5 4 4 4 4 5 5 5 4 2 2 4 6 6 6 6 6 5 2 2 1 1 1 1 0 0 1 1 1 1 1 2 2 2 3 3 4 4 4 4 5
5 4 4 4 4 3 4 4 4 4 4 4 3 3 4 5 4 5 6 3 2 2 2 1 1 1 1 1 1 1 1 2 2 2 2 2 3 3 4 4 4 6 6
4 6 5 4 4 4 3 3 3 4 4 4 4 4 4 3 2 3 3 3 2 2 2 2 2 1 1 1 1 1 2 2 2 1 2 2 3 3 4 5 5 5 5
3 4 5 4 3 3 3 3 3 3 3 4 4 6 9 6 5 5 4 4 3 3 3 3 2 2 2 1 1 2 2 1 1 1 2 3 3 3 4 4 5 5 5
3 4 3 3 3 3 3 3 3 3 3 3 3 5 9 5 4 4 4 4 3 3 2 2 2 2 2 2 2 1 2 2 2 2 3 3 3 4 4 4 5 5 5
3 3 3 3 3 3 3 2 2 2 3 3 3 3 5 4 4 4 4 3 3 2 1 0 1 2 2 2 2 1 2 2 2 2 3 3 4 4 4 5 6 6 6
2 2 2 2 2 2 2 2 2 2 2 2 2 3 3 3 3 3 3 2 2 1 0 1 2 3 3 2 3 3 3 3 4 3 4 4 5 5 4 5 6 6 6
1 1 1 2 2 2 2 1 1 1 1 1 1 2 2 2 2 2 2 1 1 0 1 1 2 3 3 3 2 2 3 4 4 5 5 4 4 5 5 5 5 5 6
1 1 1 1 1 1 2 1 1 1 1 1 1 1 1 2 2 2 2 1 1 1 1 2 2 3 3 2 2 3 3 4 5 6 6 5 4 4 5 4 6 5 6
Wind_Direction
162 156 149 148 141 132 129 126 122 120 122 126 124 114 104 97 93 83 74 49 67 75 70 77 63 50 36 19 29 33 32 58 91 38 40 44 49 45 40 53 85 92 80
156 147 150 154 147 143 143 138 137 136 129 126 121 115 110 104 106 110 104 83 71 66 63 79 84 76 53 29 33 33 33 39 84 81 30 24 30 34 37 34 40 59 85
150 151 158 158 154 152 142 135 143 139 136 133 123 117 115 115 112 107 108 97 75 62 54 57 52 63 49 37 44 36 31 39 63 92 53 25 18 14 28 20 30 27 32
156 160 163 158 154 147 136 131 139 133 134 130 120 115 110 96 82 76 84 91 90 80 64 58 52 56 46 37 40 28 36 38 44 66 70 32 17 360 30 13 2 354 1
161 166 164 153 145 138 135 137 133 134 137 126 111 98 92 85 64 54 37 58 86 101 91 87 83 81 70 62 55 34 33 32 33 56 47 36 12 8 358 351 357 334 345
163 165 155 146 140 142 146 141 129 123 115 110 109 105 91 81 70 58 41 16 42 79 103 111 116 104 87 78 68 58 54 53 33 44 33 31 341 345 348 359 358 358 332
161 158 153 147 147 154 151 139 136 131 118 114 115 107 101 94 84 63 33 8 25 29 68 103 97 90 88 90 72 54 38 34 45 97 59 343 334 334 353 344 330 313 283
160 158 155 153 155 157 149 153 156 145 140 138 128 120 115 113 99 74 21 350 23 26 36 70 97 90 63 55 74 62 45 22 26 64 85 45 21 355 342 307 290 312 312
159 161 158 156 155 155 156 160 154 144 141 139 138 137 129 129 128 94 18 345 74 50 48 50 72 84 55 43 59 58 54 8 43 65 54 33 357 346 360 18 358 353 327
162 162 159 153 152 158 164 159 146 139 139 133 131 134 134 137 144 120 48 357 129 96 68 72 74 81 62 49 55 54 27 339 8 11 353 321 329 346 357 38 16 335 314
154 154 153 149 152 156 157 149 143 144 147 146 145 141 139 144 150 140 105 46 17 88 89 76 66 79 67 47 42 49 337 332 339 330 321 331 3 15 15 17 18 324 300
143 146 144 144 149 150 144 143 147 151 156 156 153 148 139 134 134 140 128 104 43 47 85 101 104 101 59 24 16 348 347 353 339 340 354 351 351 343 340 353 335 334 315
140 144 147 146 141 140 143 148 152 153 157 160 155 152 141 131 133 141 151 130 50 62 50 109 128 134 101 328 319 326 339 345 340 349 334 316 311 312 334 335 326 325 323
141 144 143 143 139 140 139 143 150 155 159 160 158 155 144 130 120 133 148 139 96 86 78 105 150 235 270 273 299 290 261 257 287 289 300 305 319 330 323 319 322 325 322
145 144 143 142 144 139 137 138 150 153 160 158 158 154 149 154 174 159 152 165 167 158 126 127 148 268 285 290 292 312 335 353 342 330 319 318 319 316 307 307 306 314 309
145 144 141 139 143 143 138 117 81 112 125 128 127 132 139 144 148 149 156 159 156 135 118 144 214 218 229 281 336 322 326 335 323 320 315 312 311 308 307 312 313 307 301
141 140 137 141 147 151 153 151 142 97 85 104 120 127 133 143 147 152 153 145 145 136 125 182 209 215 264 359 344 327 310 309 315 310 304 305 305 308 311 311 310 310 308
139 136 140 145 146 151 156 160 161 160 159 151 132 142 143 148 153 152 143 124 130 145 177 198 212 227 236 260 281 287 296 312 322 318 316 316 317 316 315 310 307 306 305
137 140 142 140 145 156 158 158 160 159 158 150 136 153 164 151 143 147 145 152 171 183 202 227 235 230 229 234 256 268 271 277 293 306 307 310 315 318 313 310 311 311 311
136 140 140 149 159 161 160 159 159 159 162 165 167 164 159 149 154 167 182 187 188 199 200 212 226 230 225 226 238 253 264 269 274 286 304 308 307 309 305 303 304 306 304
136 145 149 152 160 167 168 167 166 166 173 177 177 169 164 174 184 186 188 196 202 208 210 212 211 215 225 234 234 255 265 275 282 297 305 301 299 302 300 298 298 298 299
140 145 157 165 168 174 174 168 165 171 180 185 179 170 168 177 185 188 192 198 203 204 198 196 203 212 223 217 215 234 254 264 274 282 287 290 292 292 292 294 297 299 300
137 147 154 160 163 166 167 165 166 175 181 180 171 161 175 193 191 194 195 194 193 184 174 202 223 245 281 272 253 235 233 253 267 280 285 287 288 286 288 290 290 295 295
118 136 146 149 145 145 153 161 163 171 174 171 170 171 180 192 192 186 180 177 154 140 75 295 275 269 275 281 267 241 240 264 278 286 292 287 286 286 286 286 287 288 291
101 118 130 137 144 148 153 160 162 161 165 163 162 167 173 177 180 168 163 138 126 188 274 280 288 286 279 278 283 282 287 290 293 297 293 290 283 285 288 288 291 294 295
95 95 103 113 124 134 139 141 137 138 157 152 142 141 154 169 176 165 157 157 189 245 277 292 286 288 293 278 256 278 282 289 296 304 300 288 281 285 293 291 292 293 293
Height
1547 1550 1552 1554 1556 1557 1559 1561 1563 1564 1565 1566 1567 1567 1568 1569 1569 1569 1569 1570 1570 1570 1570 1570 1570 1570 1570 1570 1570 1569 1569 1570 1569 1569 1569 1568 1567 1566 1565 1563 1562 1560 1558
1546 1548 1551 1553 1555 1557 1558 1560 1562 1564 1565 1566 1567 1568 1568 1569 1569 1570 1570 1570 1570 1571 1570 1570 1570 1570 1570 1570 1570 1569 1569 1569 1569 1568 1568 1568 1567 1566 1565 1563 1562 1561 1559
1545 1547 1550 1552 1554 1556 1558 1559 1561 1563 1565 1566 1567 1568 1568 1569 1569 1570 1570 1571 1571 1571 1571 1570 1570 1570 1570 1570 1570 1569 1569 1569 1569 1568 1568 1567 1566 1565 1564 1563 1562 1561 1559
1543 1546 1549 1551 1553 1555 1557 1558 1561 1562 1564 1565 1567 1567 1568 1569 1570 1570 1571 1571 1571 1571 1571 1571 1570 1570 1570 1570 1569 1569 1569 1569 1568 1568 1567 1566 1565 1564 1563 1562 1561 1560 1558
1542 1545 1547 1550 1552 1554 1556 1558 1560 1562 1563 1564 1566 1567 1568 1568 1569 1570 1570 1571 1571 1571 1570 1570 1570 1570 1570 1569 1569 1568 1568 1568 1567 1567 1566 1565 1564 1563 1562 1561 1560 1559 1557
1540 1543 1545 1548 1550 1552 1554 1556 1558 1560 1562 1563 1564 1566 1567 1568 1569 1569 1570 1570 1570 1570 1570 1570 1570 1569 1569 1569 1568 1568 1568 1567 1566 1566 1565 1564 1563 1562 1561 1560 1559 1557 1555
1538 1541 1544 1546 1549 1551 1553 1555 1557 1559 1561 1562 1563 1565 1566 1567 1568 1568 1569 1569 1569 1570 1570 1570 1569 1569 1568 1568 1568 1567 1567 1566 1566 1565 1564 1563 1562 1561 1560 1559 1557 1556 1555
1537 1539 1542 1545 1547 1549 1552 1554 1556 1558 1559 1561 1562 1563 1564 1565 1566 1567 1568 1568 1568 1568 1568 1568 1568 1568 1567 1567 1566 1566 1566 1565 1565 1564 1563 1563 1562 1560 1559 1558 1556 1555 1553
1534 1537 1540 1542 1545 1547 1550 1552 1554 1556 1558 1559 1561 1562 1563 1564 1565 1566 1566 1566 1567 1567 1567 1567 1567 1566 1566 1565 1565 1565 1564 1564 1564 1563 1562 1561 1560 1559 1558 1556 1555 1553 1551
1532 1535 1538 1541 1543 1545 1548 1550 1552 1555 1556 1558 1559 1560 1561 1562 1563 1564 1565 1565 1565 1565 1565 1565 1565 1565 1565 1564 1564 1563 1563 1562 1562 1561 1560 1559 1558 1557 1556 1555 1553 1551 1549
1530 1533 1536 1539 1541 1543 1546 1548 1550 1552 1554 1556 1557 1559 1560 1561 1561 1562 1563 1563 1563 1563 1563 1563 1563 1563 1563 1563 1562 1562 1561 1561 1560 1559 1558 1557 1556 1555 1554 1553 1552 1550 1548
1529 1531 1534 1537 1539 1541 1544 1546 1548 1550 1552 1554 1555 1556 1557 1558 1559 1560 1560 1561 1561 1561 1562 1562 1562 1562 1561 1561 1561 1560 1560 1559 1558 1557 1556 1555 1554 1553 1552 1551 1549 1548 1546
1527 1529 1532 1535 1537 1539 1541 1544 1546 1548 1550 1551 1553 1554 1555 1556 1557 1557 1558 1559 1559 1559 1560 1560 1560 1560 1560 1559 1559 1558 1558 1557 1556 1555 1554 1554 1553 1551 1550 1548 1547 1545 1543
1525 1528 1530 1532 1535 1537 1539 1541 1543 1545 1547 1549 1550 1552 1553 1553 1554 1555 1556 1557 1557 1557 1557 1558 1558 1558 1558 1557 1557 1557 1556 1556 1555 1554 1553 1552 1551 1549 1548 1546 1544 1542 1540
1523 1526 1528 1530 1533 1535 1537 1539 1541 1543 1545 1547 1548 1549 1550 1551 1552 1553 1554 1554 1554 1555 1555 1555 1555 1555 1555 1555 1555 1555 1554 1553 1553 1551 1550 1549 1548 1546 1545 1543 1541 1539 1537
1521 1524 1526 1529 1531 1533 1535 1537 1539 1541 1543 1544 1546 1547 1548 1549 1550 1551 1552 1552 1553 1553 1553 1553 1553 1553 1553 1553 1552 1552 1551 1551 1550 1549 1548 1547 1545 1544 1542 1540 1538 1536 1534
1519 1522 1524 1527 1529 1531 1533 1535 1537 1539 1540 1542 1543 1545 1546 1547 1548 1549 1549 1550 1550 1550 1550 1550 1550 1551 1550 1550 1550 1549 1549 1548 1547 1546 1545 1544 1542 1541 1539 1537 1535 1533 1531
1518 1520 1523 1525 1527 1529 1531 1533 1535 1536 1537 1539 1541 1542 1543 1545 1545 1546 1547 1547 1547 1547 1547 1548 1548 1548 1548 1547 1547 1546 1546 1545 1544 1543 1542 1541 1539 1538 1536 1534 1532 1530 1527
1517 1519 1521 1523 1525 1527 1529 1531 1533 1534 1535 1536 1538 1539 1540 1542 1542 1543 1543 1544 1544 1544 1544 1545 1545 1545 1544 1544 1544 1543 1542 1542 1541 1539 1538 1537 1536 1534 1532 1530 1528 1526 1524
1516 1518 1520 1522 1524 1526 1528 1529 1530 1532 1533 1533 1534 1535 1537 1538 1538 1539 1540 1540 1540 1541 1541 1541 1541 1541 1541 1541 1540 1539 1539 1538 1537 1536 1534 1533 1531 1530 1528 1526 1524 1522 1519
1514 1516 1518 1520 1522 1524 1525 1527 1528 1529 1530 1530 1531 1532 1533 1534 1535 1535 1536 1536 1537 1537 1537 1537 1538 1537 1537 1537 1536 1535 1534 1533 1532 1531 1530 1528 1527 1525 1523 1521 1519 1517 1514
1512 1514 1516 1518 1519 1521 1523 1524 1525 1526 1527 1528 1528 1529 1530 1530 1531 1531 1532 1532 1533 1533 1533 1534 1534 1533 1533 1532 1531 1530 1529 1528 1527 1526 1525 1523 1522 1520 1518 1516 1514 1512 1510
1511 1512 1514 1516 1517 1519 1520 1521 1522 1523 1524 1524 1525 1525 1526 1526 1527 1527 1528 1528 1529 1529 1529 1529 1529 1528 1528 1528 1527 1526 1525 1523 1522 1521 1520 1518 1517 1515 1513 1511 1509 1507 1505
1509 1510 1512 1513 1515 1516 1517 1518 1519 1520 1520 1521 1521 1522 1522 1522 1523 1523 1524 1524 1524 1524 1525 1524 1524 1524 1523 1522 1522 1521 1520 1519 1518 1516 1515 1513 1512 1510 1508 1506 1504 1502 1500
1507 1508 1509 1511 1512 1513 1514 1515 1515 1516 1516 1517 1517 1518 1518 1519 1519 1519 1520 1520 1520 1520 1520 1519 1519 1519 1518 1517 1516 1516 1515 1514 1512 1511 1509 1508 1506 1504 1502 1500 1498 1496 1494
1505 1506 1507 1508 1509 1510 1511 1512 1512 1513 1513 1513 1514 1514 1514 1515 1515 1515 1515 1515 1515 1515 1515 1514 1514 1514 1513 1512 1511 1510 1509 1508 1507 1505 1504 1502 1500 1498 1496 1494 1492 1490 1488